Location: Newark
(30.0333°N, 31.2167°E)
Time: 01:03:31
(UTC+00:00)

Tiros 1 - Pass Details

Date: 29 January 2020
Orbit: 631 x 664 km, 48.4° (Epoch: 27 February)

Event Time Altitude Azimuth Distance (km) Brightness Sun altitude
Rises 14:29:32 0° 321° (NW) 2,965 10.7 10.9°
Reaches altitude 10° 14:32:12 10° 334° (NNW) 2,059 9.8 10.4°
Maximum altitude 14:36:11 26° 31° (NNE) 1,295 8.3 9.6°
Drops below altitude 10° 14:40:10 10° 88° (E) 2,068 9.2 8.9°
Sets 14:42:51 0° 101° (E) 2,982 10.1 8.4°
